Big Bear Station Historical Data
Daily Summary for November 5, 2017 Units:  English    Metric   Both
« Previous Day
Next Day »
Daily Weekly Monthly Yearly Custom
  High: Low: Average:
Temperature: 50.4 °F 39.4 °F 42.9 °F
Dew Point: 40.1 °F 30.2 °F 37.2 °F
Humidity: 94 % 64 % 81 %
Wind Speed: 7.3 mph 0.0 mph 2.5 mph
Wind Gust: -999.0 mph - -
Wind:- - WSW
Pressure: 23.53 in 23.47 in -
Precipitation: 0.00 in    
Historical Graphs
 
 
Tabular Data for November 5, 2017
Time Temperature Dew Point Pressure Wind Wind Speed Wind Gust Humidity Rainfall Rate (Hourly)
00:03 39.4 °F 37.5 °F 23.47 in North 2.2 mph -999.0 mph 93 % 0 in
00:19 39.6 °F 38.0 °F 23.48 in NW 3.2 mph -999.0 mph 94 % 0 in
00:34 39.7 °F 38.1 °F 23.48 in East 2.7 mph -999.0 mph 94 % 0 in
00:49 39.9 °F 38.0 °F 23.48 in East 2.7 mph -999.0 mph 93 % 0 in
01:04 40.1 °F 38.2 °F 23.48 in NNW 1.7 mph -999.0 mph 93 % 0 in
01:19 40.1 °F 38.2 °F 23.48 in West 1.7 mph -999.0 mph 93 % 0 in
01:35 40.1 °F 38.2 °F 23.48 in NNW 2.2 mph -999.0 mph 93 % 0 in
01:50 40.1 °F 38.2 °F 23.48 in NW 5.3 mph -999.0 mph 93 % 0 in
02:05 40.3 °F 38.2 °F 23.47 in WNW 5.8 mph -999.0 mph 92 % 0 in
02:20 40.3 °F 38.2 °F 23.47 in South 1.7 mph -999.0 mph 92 % 0 in
02:35 40.5 °F 38.1 °F 23.47 in West 1.1 mph -999.0 mph 91 % 0 in
02:51 40.5 °F 38.1 °F 23.47 in NE 7.3 mph -999.0 mph 91 % 0 in
03:06 41.0 °F 38.3 °F 23.47 in SE 1.1 mph -999.0 mph 90 % 0 in
03:22 41.0 °F 38.3 °F 23.47 in Calm   -999.0 mph 90 % 0 in
03:37 41.0 °F 38.6 °F 23.47 in WSW 3.2 mph -999.0 mph 91 % 0 in
03:52 40.8 °F 38.7 °F 23.47 in WNW 2.7 mph -999.0 mph 92 % 0 in
04:07 40.8 °F 38.7 °F 23.47 in WSW 2.7 mph -999.0 mph 92 % 0 in
04:23 40.6 °F 38.2 °F 23.47 in NNE 2.2 mph -999.0 mph 91 % 0 in
04:38 40.5 °F 38.1 °F 23.48 in NNW 4.2 mph -999.0 mph 91 % 0 in
04:53 40.3 °F 38.2 °F 23.48 in SSE 2.2 mph -999.0 mph 92 % 0 in
05:08 40.3 °F 38.2 °F 23.48 in Calm   -999.0 mph 92 % 0 in
05:24 40.3 °F 38.2 °F 23.48 in WSW 4.7 mph -999.0 mph 92 % 0 in
05:39 40.3 °F 38.4 °F 23.48 in SSE 1.7 mph -999.0 mph 93 % 0 in
05:54 40.3 °F 38.7 °F 23.48 in NW 4.2 mph -999.0 mph 94 % 0 in
06:10 40.1 °F 38.5 °F 23.49 in NNW 2.7 mph -999.0 mph 94 % 0 in
06:25 40.1 °F 38.2 °F 23.49 in WNW 2.2 mph -999.0 mph 93 % 0 in
06:40 40.1 °F 38.0 °F 23.49 in NNE 2.7 mph -999.0 mph 92 % 0 in
06:56 40.3 °F 38.2 °F 23.49 in WNW 2.7 mph -999.0 mph 92 % 0 in
07:11 40.6 °F 38.2 °F 23.51 in WSW 2.7 mph -999.0 mph 91 % 0 in
07:26 41.0 °F 38.6 °F 23.51 in NW 2.2 mph -999.0 mph 91 % 0 in
07:41 41.2 °F 38.8 °F 23.51 in NW 2.7 mph -999.0 mph 91 % 0 in
08:12 41.4 °F 39.0 °F 23.52 in WNW 4.2 mph -999.0 mph 91 % 0 in
08:27 42.3 °F 39.6 °F 23.52 in NW 4.2 mph -999.0 mph 90 % 0 in
09:59 45.3 °F 40.1 °F 23.53 in NNW 2.7 mph -999.0 mph 82 % 0 in
10:14 46.0 °F 39.9 °F 23.53 in WSW 5.3 mph -999.0 mph 79 % 0 in
10:30 45.5 °F 40.0 °F 23.53 in NE 6.3 mph -999.0 mph 81 % 0 in
10:45 46.9 °F 39.7 °F 23.53 in NNW 5.8 mph -999.0 mph 76 % 0 in
11:01 45.5 °F 39.0 °F 23.53 in Calm   -999.0 mph 78 % 0 in
11:16 46.0 °F 39.2 °F 23.52 in SE 2.2 mph -999.0 mph 77 % 0 in
11:31 46.4 °F 39.6 °F 23.52 in South 1.1 mph -999.0 mph 77 % 0 in
11:46 46.9 °F 39.7 °F 23.51 in Calm   -999.0 mph 76 % 0 in
12:02 47.1 °F 39.2 °F 23.51 in NNE 7.3 mph -999.0 mph 74 % 0 in
12:17 48.2 °F 40.0 °F 23.51 in NNE 3.2 mph -999.0 mph 73 % 0 in
12:32 49.3 °F 38.8 °F 23.49 in NNW 3.2 mph -999.0 mph 67 % 0 in
12:47 50.4 °F 38.7 °F 23.49 in WNW 4.7 mph -999.0 mph 64 % 0 in
13:02 48.7 °F 38.6 °F 23.49 in NW 3.2 mph -999.0 mph 68 % 0 in
13:18 48.7 °F 39.0 °F 23.49 in West 5.8 mph -999.0 mph 69 % 0 in
13:33 48.2 °F 38.5 °F 23.49 in SSW 1.7 mph -999.0 mph 69 % 0 in
13:48 48.4 °F 38.7 °F 23.49 in NW 5.8 mph -999.0 mph 69 % 0 in
14:03 48.0 °F 38.7 °F 23.49 in East 3.2 mph -999.0 mph 70 % 0 in
14:19 47.8 °F 38.9 °F 23.49 in NNE 3.7 mph -999.0 mph 71 % 0 in
14:35 46.9 °F 38.7 °F 23.49 in WNW 2.7 mph -999.0 mph 73 % 0 in
14:50 46.2 °F 38.4 °F 23.48 in SSW 1.1 mph -999.0 mph 74 % 0 in
15:05 46.6 °F 38.4 °F 23.48 in WNW 1.1 mph -999.0 mph 73 % 0 in
15:21 46.2 °F 38.0 °F 23.48 in WSW 3.2 mph -999.0 mph 73 % 0 in
15:36 46.0 °F 37.8 °F 23.48 in SW 2.7 mph -999.0 mph 73 % 0 in
15:51 45.7 °F 37.2 °F 23.48 in WNW 4.2 mph -999.0 mph 72 % 0 in
16:21 44.8 °F 37.0 °F 23.47 in North 2.7 mph -999.0 mph 74 % 0 in
16:37 44.2 °F 38.4 °F 23.48 in NW 2.7 mph -999.0 mph 80 % 0 in
16:52 43.5 °F 37.1 °F 23.48 in NW 2.2 mph -999.0 mph 78 % 0 in
17:07 43.0 °F 36.0 °F 23.48 in Calm   -999.0 mph 76 % 0 in
17:22 41.9 °F 38.3 °F 23.48 in ENE 2.2 mph -999.0 mph 87 % 0 in
17:38 41.2 °F 38.2 °F 23.48 in Calm   -999.0 mph 89 % 0 in
17:53 40.8 °F 36.0 °F 23.49 in Calm   -999.0 mph 83 % 0 in
18:08 41.2 °F 34.9 °F 23.49 in Calm   -999.0 mph 78 % 0 in
18:23 40.8 °F 34.5 °F 23.49 in Calm   -999.0 mph 78 % 0 in
18:38 40.5 °F 35.4 °F 23.50 in South 1.1 mph -999.0 mph 82 % 0 in
18:54 40.5 °F 34.8 °F 23.50 in Calm   -999.0 mph 80 % 0 in
19:09 40.5 °F 34.8 °F 23.49 in WNW 2.2 mph -999.0 mph 80 % 0 in
19:24 41.0 °F 35.9 °F 23.50 in Calm   -999.0 mph 82 % 0 in
19:39 41.2 °F 34.5 °F 23.50 in West 1.1 mph -999.0 mph 77 % 0 in
19:55 41.5 °F 34.2 °F 23.49 in Calm   -999.0 mph 75 % 0 in
20:10 42.1 °F 34.4 °F 23.50 in Calm   -999.0 mph 74 % 0 in
20:25 42.1 °F 34.4 °F 23.50 in West 1.1 mph -999.0 mph 74 % 0 in
20:40 42.8 °F 34.7 °F 23.50 in Calm   -999.0 mph 73 % 0 in
20:56 43.3 °F 34.5 °F 23.50 in NNW 2.2 mph -999.0 mph 71 % 0 in
21:11 43.9 °F 33.7 °F 23.50 in WSW 2.7 mph -999.0 mph 67 % 0 in
21:26 43.9 °F 33.7 °F 23.50 in South 1.1 mph -999.0 mph 67 % 0 in
21:41 43.7 °F 33.5 °F 23.50 in SSW 2.2 mph -999.0 mph 67 % 0 in
21:57 43.3 °F 33.8 °F 23.50 in NW 3.2 mph -999.0 mph 69 % 0 in
22:12 43.0 °F 34.2 °F 23.50 in South 1.1 mph -999.0 mph 71 % 0 in
22:27 42.6 °F 34.2 °F 23.50 in WNW 2.7 mph -999.0 mph 72 % 0 in
22:42 42.8 °F 33.7 °F 23.50 in WSW 3.2 mph -999.0 mph 70 % 0 in
22:57 42.4 °F 33.0 °F 23.50 in NW 2.7 mph -999.0 mph 69 % 0 in
23:13 41.9 °F 32.5 °F 23.50 in NNW 2.7 mph -999.0 mph 69 % 0 in
23:28 41.7 °F 31.9 °F 23.50 in NNW 1.7 mph -999.0 mph 68 % 0 in
23:43 41.9 °F 31.4 °F 23.50 in West 4.2 mph -999.0 mph 66 % 0 in
23:58 41.5 °F 30.2 °F 23.51 in West 2.7 mph -999.0 mph 64 % 0 in
Big Bear CA Weather
Compliments of Weather Underground - 1.5 mb